User: anonymous
Location: Unspecified
(0.0000°N, 0.0000°E)
Time: 05:50:44
(UTC+02:00)
Language:

Cosmos 1295 Rocket - Orbit

View from above orbital plane
View from above orbital plane
View from above satellite
View from above satellite

Ground track
Ground track

The orbit data is extracted from the following two-line orbital elements,

1 12682U 81077B   14106.15868642  .00000025  00000-0  95111-5 0  6754
2 12682 082.9170 162.2152 0033439 354.3421 056.7996 13.78442860643324
Epoch (UTC): 16 April 2014 03:48:30
Eccentricity: 0.0033439
inclination: 82.9170°
perigee height: 945 km
apogee height: 994 km
right ascension of ascending node: 162.2152°
argument of perigee: 354.3421°
revolutions per day: 13.78442860
mean anomaly at epoch: 56.7996°
orbit number at epoch: 64332

The dashed part of the orbit path shows where the satellite is in the earth's shadow,  

DLR